sat.trackr.live / text

‹ back to catalog

SHIYAN-32 03

NORAD 66379 · 2025-255D

PAYLOAD ACTIVE UNKNOWN

§ Identity

Operator
Country
PRC
Launch date
2025-11-08
Launch site
YSLA
Launch vehicle
Mass (kg)
RCS (m²)

External: N2YO · Heavens-Above · Gunter

§ Orbital elements

Epoch: 2026-09-20T23:02:03.444576Z

Period
93.39 min
Inclination
52.9947°
Eccentricity
0.0008101
Mean motion
15.41848969 rev/d
Perigee alt
435.1 km
Apogee alt
446.2 km
Semi-major
6,818.8 km
B*
1.5319e-4
RAAN
279.9281°
Arg perigee
124.3731°
Mean anomaly
235.8040°
Rev number
4,875

§ Raw data

SHIYAN-32 031 66379U 25255D   26263.95976209  .00006195  00000+0  15319-3 0  99982 66379  52.9947 279.9281 0008101 124.3731 235.8040 15.41848969 48759

JSON: /api/v1/satellites/66379 · /tle

For live sub-satellite position, see the globe view (requires WebGL).

§ Visibility from observer

Set your observer location to see the next 7 days of passes ≥ 10°. The values pass through the URL so the page stays shareable.

No JS? Fill the form by hand. The geolocation button needs JavaScript.